Regional Weather Roundup
Issued by NWS Northern Indiana

Home | Current Version | Previous Version | Text Only | Print | Product List | Glossary On
Versions: 1 2 3 4 5 6 7 8 9 10 11 12 13 14 15 16 17 18 19 20 21 22 23 24 25 26 27 28 29 30 31 32 33 34 35 36 37 38 39 40 41 42 43 44 45 46 47 48 49 50
000
ASUS43 KIWX 231410
RWRIWX

KIWX WEATHER ROUNDUP
NATIONAL WEATHER SERVICE NORTHERN INDIANA
900 AM EST THU FEB 23 2017

NOTE: "FAIR" INDICATES FEW OR NO CLOUDS BELOW 12,000 FEET WITH NO
SIGNIFICANT WEATHER AND/OR OBSTRUCTIONS TO VISIBILITY.

* THESE STATIONS ARE NOT UNDER NWS QUALITY CONTROL. THEY ALSO MAY NOT
  REPORT WEATHER SUCH AS PRECIPITATION OR FOG.

INZ001>027-231500-
NORTHERN INDIANA

CITY           SKY/WX    TMP DP  RH WIND       PRES   REMARKS
GARY*          MOSUNNY   52  45  76 NW9       29.78R
VALPARAISO     SUNNY     47  47 100 CALM      29.77R FOG
MICHIGAN CITY* SUNNY     50  43  76 N6        29.78R
LAPORTE*       FOG       44  44 100 CALM      29.77R VSB 1/2
KNOX*          CLOUDY    46  41  81 SW5       29.77R VSB<1/4
SOUTH BEND     MOSUNNY   47  47 100 SW3       29.77R FOG
ELKHART*         N/A     50  48  93 MISG      29.75R FOG
GOSHEN         SUNNY     51  49  92 W6        29.75R FOG
MONTICELLO*    SUNNY     50  48  95 SW3       29.76R FOG
LOGANSPORT*    MOSUNNY   52  52 100 SW5       29.77S FOG
ROCHESTER*     SUNNY     54  52  94 W7        29.76R
WARSAW*        SUNNY     52  50  93 W5        29.76R FOG
ANGOLA*        SUNNY     54  46  76 W7        29.73S
FORT WAYNE     MOSUNNY   55  52  89 SW7       29.76R
HUNTINGTON*    PTSUNNY   53  52  95 SW3       29.76R
PERU/GRISSOM   SUNNY     53  53 100 SW6       29.75R
MARION*        MOSUNNY   53  53  99 SW7       29.78R FOG

$$
INZ028>050-231500-
CENTRAL INDIANA

CITY           SKY/WX    TMP DP  RH WIND       PRES   REMARKS
LAFAYETTE      PTSUNNY   51  51 100 CALM      29.76R FOG
KOKOMO*        SUNNY     55  53  93 SW7       29.78R FOG
MUNCIE*        CLOUDY    58  54  86 SW7       29.77R
INDIANAPOLIS   MOSUNNY   58  56  93 SW7       29.77R

$$
MIZ043>046-050>051-056>058-064>065-071>073-077>080-231500-
SOUTHWEST LOWER MICHIGAN

CITY           SKY/WX    TMP DP  RH WIND       PRES   REMARKS
BATTLE CREEK   SUNNY     51  45  79 W9        29.73R
BENTON HARBOR  SUNNY     48  41  76 VRB7      29.76R
COLDWATER*     SUNNY     53  51  92 W8        29.73S
HILLSDALE*     CLOUDY    52  50  93 W9        29.72R FOG
HOLLAND        CLOUDY    42  39  89 NW6       29.76R
GRAND RAPIDS   PTSUNNY   46  40  79 NW12      29.73R
KALAMAZOO      SUNNY     51  44  77 W10       29.74R
STURGIS*       SUNNY     52  50  92 W6        29.74R FOG
THREE RIVERS*  FAIR      52  47  82 W8        29.75R

$$
OHZ001>008-015>018-024>025-231500-
NORTHWEST OHIO

CITY           SKY/WX    TMP DP  RH WIND       PRES   REMARKS
WAUSEON*       FAIR      55  54  94 W12       29.73R
DEFIANCE       SUNNY     54  52  93 SW7       29.75R
FINDLAY        CLOUDY    59  53  80 SW10      29.75R
TOLEDO EXPRESS MOSUNNY   56  54  93 W13       29.73R
TOLEDO METCALF PTSUNNY   57  54  89 SW14      29.74R
LIMA           PTSUNNY   57  55  93 SW10      29.76R

$$
AND FOR LAKE MICHIGAN COASTAL AND OPEN LAKE BUOY OBSERVATIONS

STATION/POSITION TEMP    WIND        PRES    VSBY  WAVE
                 AIR SEA DIR/SP/G                  HT/PER
                 (F)     (DEG/KT/KT) (MB)    (MI)  (FT/S)
CALUMET HARBOR    49     340/  4/  7 1007.9R
MICHIGAN CITY     42     220/  5/  6   N/A
BURNS HARBOR      44     300/  5/  7 1008.5R
SAINT JOSEPH      42     360/  2/  4 1008.8

$$
&&



USA.gov is the U.S. government's official web portal to all federal, state and local government web resources and services.